Weather History for KMXF - October, 2013

Change the Weather History Date:

Wednesday, October 2, 2013

  Actual Average Record
Temperature  
Mean Temperature 74 °F -  
Max Temperature 85 °F 80 °F 89 °F (2002)
Min Temperature 64 °F 60 °F 45 °F (2011)
Cooling Degree Days 8    
Growing Degree Days 24 (Base 50)    
Moisture  
Dew Point 65 °F    
Average Humidity 80    
Maximum Humidity 100    
Minimum Humidity 48    
Precipitation  
Precipitation 0.00 in - - ()
Sea Level Pressure  
Sea Level Pressure 30.09 in    
Wind  
Wind Speed 3 mph (NE)    
Max Wind Speed 9 mph    
Max Gust Speed -    
Visibility 9 miles    
Events      
Averages and records for this station are not official NWS values.
T = Trace of Precipitation, MM = Missing Value Source: NWS Daily Summary

Daily Weather History Graph

Daily Weather History Graph

Search for Another Location

Airport or City:

Trip Planner

Search our weather history database for the weather conditions in past years. The results will help you decide how hot, cold, wet, or windy it might be!

Date:

Astronomy

Oct. 02, 2013 Rise Set
Actual Time 6:40 AM CDT 6:28 PM CDT
Civil Twilight 6:15 AM CDT 6:53 PM CDT
Nautical Twilight 5:47 AM CDT 7:21 PM CDT
Astronomical Twilight 5:18 AM CDT 7:49 PM CDT
Moon 4:19 AM CDT (10/2) 4:59 PM CDT (10/2)
Length of Visible Light 12h 37m
Length of Day
11h 48m
Waning Crescent, 6% of the Moon is Illuminated
Oct 2
Waning Crescent
Oct 4
New
Oct 11
First Quarter
Oct 18
Full
Oct 26
Last Quarter

Hourly Weather History & Observations

Time (CDT) Temp. Heat Index Dew Point Humidity Pressure Visibility Wind Dir Wind Speed Gust Speed Precip Events Conditions
12:58 AM 67.5 °F - 66.4 °F 96% 30.10 in 10.0 mi East 2.3 mph - N/A   Clear
1:58 AM 66.7 °F - 65.8 °F 97% 30.10 in 6.0 mi NNW 2.3 mph - N/A   Clear
2:08 AM 66.2 °F - 66.2 °F 100% 30.09 in 2.5 mi NNW 1.2 mph - N/A   Clear
2:13 AM 66.2 °F - 64.4 °F 94% 30.08 in 7.0 mi NNW 1.2 mph - N/A   Clear
2:58 AM 66.0 °F - 65.8 °F 99% 30.09 in 8.0 mi North 1.2 mph - N/A   Clear
3:08 AM 66.2 °F - 66.2 °F 100% 30.08 in 2.5 mi North 2.3 mph - N/A   Clear
3:13 AM 66.2 °F - 66.2 °F 100% 30.08 in 5.0 mi NNW 4.6 mph - N/A   Clear
3:58 AM 64.8 °F - 64.4 °F 99% 30.09 in 10.0 mi NNE 3.5 mph - N/A   Clear
4:58 AM 66.4 °F - 65.3 °F 96% 30.10 in 10.0 mi NE 4.6 mph - N/A   Clear
5:58 AM 66.2 °F - 64.2 °F 93% 30.11 in 10.0 mi NE 2.3 mph - N/A   Partly Cloudy
6:58 AM 65.8 °F - 63.9 °F 93% 30.12 in 10.0 mi NNE 4.6 mph - N/A   Partly Cloudy
7:58 AM 66.2 °F - 64.0 °F 93% 30.13 in 10.0 mi NE 4.6 mph - N/A   Partly Cloudy
8:58 AM 70.7 °F - 64.8 °F 81% 30.14 in 10.0 mi East 4.6 mph - N/A   Clear
9:58 AM 77.0 °F - 63.9 °F 64% 30.14 in 10.0 mi Variable 3.5 mph - N/A   Clear
10:58 AM 81.0 °F 82.6 °F 64.2 °F 57% 30.14 in 10.0 mi ENE 6.9 mph - N/A   Clear
11:58 AM 83.3 °F 84.3 °F 62.6 °F 50% 30.12 in 10.0 mi ENE 9.2 mph - N/A   Clear
12:58 PM 83.8 °F 84.9 °F 63.1 °F 50% 30.10 in 10.0 mi NNE 6.9 mph - N/A   Clear
1:58 PM 83.8 °F 84.5 °F 62.1 °F 48% 30.08 in 10.0 mi NE 9.2 mph - N/A   Clear
2:58 PM 83.5 °F 84.3 °F 62.6 °F 49% 30.06 in 10.0 mi NNE 6.9 mph - N/A   Partly Cloudy
3:58 PM 82.9 °F 83.5 °F 61.5 °F 48% 30.05 in 10.0 mi East 8.1 mph - N/A   Scattered Clouds
4:58 PM 81.3 °F 82.3 °F 62.4 °F 52% 30.05 in 10.0 mi SE 9.2 mph - N/A   Mostly Cloudy
5:58 PM 79.2 °F - 63.1 °F 58% 30.06 in 10.0 mi SE 8.1 mph - N/A   Mostly Cloudy
6:58 PM 74.8 °F - 64.2 °F 69% 30.07 in 10.0 mi South 2.3 mph - N/A   Overcast
7:58 PM 72.7 °F - 66.4 °F 81% 30.07 in 10.0 mi Calm Calm - N/A   Mostly Cloudy
8:58 PM 72.0 °F - 67.3 °F 85% 30.09 in 10.0 mi North 1.2 mph - N/A   Overcast
9:58 PM 70.9 °F - 68.0 °F 91% 30.10 in 10.0 mi NNE 2.3 mph - N/A   Mostly Cloudy
10:58 PM 69.3 °F - 67.5 °F 94% 30.11 in 10.0 mi South 1.2 mph - N/A   Clear
11:58 PM 67.6 °F - 66.4 °F 96% 30.10 in 10.0 mi Calm Calm - N/A   Scattered Clouds